Vertical_Velocity
-1 0 -0 -0 -2 -1 0 -1 -1 -2 1 -1 -0 1 -0 0 -1 -1 -0 -0 -0 -0 -1 -1 -2 -2 -2 -2 -2 -2 -0 0 -1
-0 -1 1 -0 -1 -1 -0 1 -1 0 -1 -0 -2 -2 -0 -0 -1 -1 0 -0 -0 -1 -0 -1 -1 -1 -2 -1 -0 -0 -2 -0 -1
-1 0 -0 0 -0 0 -0 -1 -0 -0 -0 1 0 -2 -1 -1 0 -1 -0 0 0 -0 -1 -1 -0 1 0 -0 -1 1 -1 -3 -2
-1 2 -1 0 1 0 0 -1 -0 -1 -1 -0 1 1 0 -1 -1 -1 -0 -0 -0 -0 0 0 1 1 0 1 0 -1 -1 3 1
-0 1 -2 0 1 0 1 0 -0 -1 -0 -0 1 0 0 0 -1 -1 -0 -1 -1 -0 -1 -0 -0 -1 -2 -0 1 2 1 -1 -1
2 1 1 -0 -1 0 -1 -0 -0 1 -1 -1 1 -1 -0 -1 0 -0 0 -1 0 -1 -0 -0 -0 -0 -1 -1 -2 -2 -1 -1 4
-1 -1 -0 1 -0 1 1 0 0 -0 0 -1 -2 1 2 -0 -1 0 1 1 -0 -0 0 -0 -0 0 -0 0 1 2 2 2 -2
3 1 -1 -3 0 1 1 1 0 -0 1 -1 -1 -1 -1 0 -0 -1 0 -0 0 -0 -1 0 -0 -1 -1 -1 -2 -1 -1 -0 -2
1 2 1 -1 0 -1 0 -0 2 1 0 -0 -0 -1 -0 -1 1 -1 -0 -1 0 -1 -0 -1 1 -1 -1 1 3 0 0 -1 -1
1 -0 2 1 1 1 0 1 1 0 1 0 0 0 -0 0 -2 -3 -2 -3 0 0 -1 -0 -3 2 -1 -3 -4 1 0 1 -1
1 -0 2 -1 1 2 2 1 0 -0 -0 -0 0 1 -1 -1 0 1 -2 -0 -2 -0 -1 -2 2 -3 -2 -2 -1 0 -2 -1 1
0 -0 1 0 -0 1 1 2 1 -1 -1 2 -1 1 1 2 -1 -1 1 0 -4 -1 -3 1 -0 -1 -1 1 -0 -6 -5 -3 -2
1 3 -0 -0 0 2 0 -1 4 -0 2 1 -2 -0 1 1 2 2 0 -4 0 -5 0 -2 -1 -0 -4 -0 -0 1 -2 0 -2
-0 1 1 2 -1 -2 1 1 3 -2 1 1 0 -4 -2 0 1 -2 -1 -1 0 2 -2 1 -3 0 0 -6 -4 -4 -5 -2 0
2 5 -2 1 -1 -1 1 -3 2 -2 2 0 -1 -3 2 -2 -1 -1 -2 -1 -1 0 -0 -1 -2 -1 2 2 1 5 4 2 2
-1 1 -4 -4 -0 5 3 -0 -1 1 -1 2 0 -1 2 0 -1 -0 1 -1 -3 -1 2 -3 -8 2 -2 -3 -5 -3 -0 0 -2
-4 -0 1 2 -1 3 4 1 0 5 3 1 -2 2 0 -3 1 1 -0 1 -1 -1 2 -0 -1 -2 9 -1 3 2 0 -0 2
-1 1 -3 -1 -2 2 2 1 5 7 7 2 2 -0 1 -5 -1 3 1 -2 -2 -1 -5 -2 -4 1 -2 0 2 2 1 0 1
-4 -1 4 2 0 4 -9 -8 -8 7 9 10 3 0 -3 -1 -0 -2 7 7 -0 -0 3 -7 2 -3 2 -5 -4 -6 -3 -4 -2
2 -1 1 0 -1 4 -3 -16 -0 21 7 -14 -7 -12 -5 -1 -4 2 -7 -3 5 3 3 2 -2 -0 -3 2 2 0 -1 4 3
Height
3155 3157 3158 3159 3160 3161 3163 3164 3165 3166 3167 3167 3168 3168 3168 3168 3168 3168 3168 3167 3167 3167 3166 3165 3164 3163 3163 3162 3161 3160 3159 3157 3156
3154 3157 3159 3160 3161 3162 3164 3165 3166 3167 3168 3168 3169 3169 3169 3169 3169 3169 3169 3168 3168 3167 3166 3166 3165 3164 3164 3163 3162 3160 3159 3157 3156
3154 3157 3159 3161 3162 3163 3164 3165 3167 3168 3168 3169 3169 3170 3169 3169 3169 3169 3168 3168 3168 3167 3167 3166 3166 3165 3164 3162 3161 3159 3158 3156 3155
3154 3157 3159 3161 3163 3164 3165 3166 3167 3168 3169 3169 3170 3170 3170 3170 3169 3169 3169 3169 3168 3168 3167 3167 3166 3164 3163 3162 3160 3159 3158 3156 3155
3154 3156 3159 3161 3163 3164 3165 3167 3167 3168 3169 3170 3170 3170 3170 3170 3169 3169 3169 3169 3169 3168 3167 3166 3165 3163 3162 3160 3159 3158 3157 3155 3154
3154 3156 3158 3161 3162 3164 3166 3167 3167 3168 3169 3169 3170 3170 3170 3169 3169 3169 3169 3168 3168 3167 3166 3165 3164 3162 3161 3160 3159 3157 3155 3154 3153
3153 3155 3157 3160 3162 3164 3165 3166 3167 3167 3168 3168 3169 3169 3169 3169 3168 3168 3168 3167 3167 3166 3165 3163 3162 3160 3159 3158 3157 3155 3154 3153 3152
3152 3154 3157 3159 3162 3163 3164 3165 3166 3166 3167 3167 3168 3168 3168 3168 3168 3167 3167 3166 3165 3165 3164 3163 3161 3159 3157 3156 3154 3154 3152 3151 3150
3152 3154 3156 3159 3161 3162 3163 3164 3165 3165 3165 3166 3166 3166 3166 3166 3166 3165 3165 3164 3164 3163 3162 3161 3159 3158 3156 3155 3153 3151 3149 3148 3148
3151 3153 3155 3158 3160 3161 3162 3163 3163 3164 3164 3165 3165 3165 3165 3165 3164 3164 3163 3162 3161 3160 3159 3159 3158 3156 3155 3153 3152 3150 3148 3146 3145
3149 3151 3153 3155 3158 3159 3160 3161 3162 3162 3163 3163 3163 3163 3163 3163 3163 3162 3162 3161 3160 3159 3158 3157 3156 3154 3153 3151 3149 3147 3145 3144 3142
3149 3150 3152 3154 3156 3157 3158 3158 3159 3160 3160 3161 3161 3161 3161 3161 3161 3160 3159 3158 3158 3157 3155 3153 3152 3151 3149 3148 3145 3143 3142 3141 3140
3147 3150 3152 3153 3154 3155 3155 3156 3157 3158 3158 3159 3158 3159 3159 3158 3158 3158 3157 3156 3155 3154 3153 3151 3149 3148 3146 3144 3143 3140 3139 3137 3135
3145 3147 3149 3151 3152 3153 3152 3154 3154 3154 3155 3156 3156 3156 3156 3156 3156 3155 3154 3154 3152 3151 3149 3149 3147 3146 3143 3141 3140 3137 3135 3133 3132
3141 3143 3144 3146 3148 3149 3149 3150 3151 3151 3151 3151 3152 3153 3153 3153 3152 3152 3152 3151 3149 3148 3147 3145 3145 3142 3140 3138 3136 3133 3131 3128 3127
3135 3138 3140 3142 3143 3144 3144 3146 3147 3148 3148 3148 3148 3148 3149 3149 3149 3148 3147 3147 3146 3145 3144 3141 3139 3138 3136 3134 3132 3130 3128 3124 3122
3131 3133 3135 3136 3138 3139 3139 3140 3142 3142 3142 3143 3143 3144 3145 3144 3144 3144 3143 3143 3142 3141 3139 3137 3134 3133 3131 3129 3127 3124 3121 3118 3117
3126 3128 3130 3131 3132 3133 3133 3134 3137 3137 3137 3137 3138 3139 3139 3139 3140 3140 3139 3138 3138 3137 3135 3132 3130 3127 3124 3122 3120 3118 3116 3115 3112
3121 3123 3125 3126 3127 3127 3128 3131 3130 3131 3131 3132 3132 3134 3135 3134 3135 3133 3133 3134 3132 3131 3129 3126 3124 3122 3119 3116 3114 3112 3110 3108 3106
3116 3117 3118 3119 3120 3121 3121 3121 3120 3121 3124 3126 3127 3128 3130 3129 3128 3126 3127 3124 3125 3126 3122 3120 3117 3117 3114 3111 3108 3106 3103 3102 3099